ARIANE 2 DEB, 40788

Orbit data source: Space-Track

ARIANE 2 DEB, 40788 is space debris in HEO originally from a launch on Fri, 27 Jan 1989 UTC launched from the French Guiana (FRGUI). Debris objects in space refer to the collection of defunct objects orbiting the Earth. Examples of debris include non-operational satellites, rocket bodies, and fragments generated from explosions, collisions, or faulty payload assembly.

Loading next visibility...
Identifier
40788, 1989-006CH
Orbit
HEO
Country
Flag of FRFR
Related business
Manufacturer
EADS/LV
Mission
Spacecraft
Bus & Motor
Unknown
Mass
Unknown
Launch date (UTC)
1989-01-27 (37 years ago)
Launch vehicle
Unknown
Launch site
French Guiana (FRGUI)
Object type
Payload
Rocket body
Debris
Shape & HBR
Unknown shape, 0.2 m
Radar Cross Section
Small (<0.1 m²)

Expand to show TLE details & history
Last TLE update: 23 hours ago

TLE from 23 hours ago
0 ARIANE 2 DEB
1 40788U 89006CH  26094.90745099  .00002453  00000-0  46762-2 0  9995
2 40788   8.6647 273.8408 6245819  14.5100 357.3454  3.54615946141233
Epoch: 2026-04-04T21:46Z
TLE epoch observation values (Epoch: 2026-04-04T21:46:43.765Z)
Latitude
0.00022°
Longitude
113.8995°
Altitude
537.62 km
Speed
9.66 km/s
True Right ascension
18h 15m 12s
True Declination
0° 00' 01"
Sunlit
Object was in daylight at epoch
Visualization orbit readout
Latitude
Unknown
Longitude
Unknown
Altitude
Unknown
Speed
Unknown
Apparent Right ascension
Unknown
Apparent Declination
Unknown
Sunlit
N/A
Visualization observer readout
Local Sidereal Time
02:51:01
Azimuth
Unknown
Elevation
Unknown
Doppler factor
Unknown
Orbital elements
Apogee altitude
23,140.011 km
Perigee altitude
443.093 km
Semi-major axis
18,169.689 km
Eccentricity
0.62458
Inclination
8.6647°
RAAN
273.8408°
Arg. of periapsis
14.51°
True anomaly
345.41267°
Mean anomaly
357.3454°
Eccentric anomaly
352.95842°
Mean motion
0.88618 °/min
Orbital period
406.24 mins
BSTAR
0.0046762
Loading maneuver chart data...
Computing Atmospheric mass density...
Loading historical data...
Loading historical data...
Loading historical data...
Loading historical data...
Loading historical data...
Loading historical data...
Loading historical data...

Documentation

Showing up to 5 results
|